Location: ????????
(55.7667°N, 37.4833°E)
Time: 13:58:37
(UTC+00:00)

Cosmos 1408 Rocket - Pass Details

Date: 19 May 2025
Orbit: 594 x 625 km, 82.6° (Epoch: 19 June)

Event Time Altitude Azimuth Distance (km) Brightness Sun altitude
Rises 21:16:34 0° 343° (NNW) 2,891 8.6 -14.2°
Reaches altitude 10° 21:18:54 10° 336° (NNW) 1,976 7.3 -14.2°
Maximum altitude 21:22:57 38° 268° (W) 935 4.4 -14.3°
Enters shadow 21:25:29 19° 211° (SSW) 1,434 4.9 -14.3°
